Regional Weather Roundup
Issued by NWS Wakefield, VA

Home | Current Version | Previous Version | Graphics & Text | Print | Product List | Glossary On
Versions: 1 2 3 4 5 6 7 8 9 10 11 12 13 14 15 16 17 18 19 20 21 22 23 24 25 26 27
000
ASUS41 KAKQ 250315
RWRAKQ

REGIONAL WEATHER ROUNDUP
NATIONAL WEATHER SERVICE WAKEFIELD VA
1100 PM EDT SUN JUL 24 2016

Note: "fair" indicates few or no clouds below 12,000 feet with no
significant weather and/or obstructions to visibility. * = Denotes
station may not report precipitation (e.g., rain,snow,etc.),
thunder or fog.

VAZ042-051-052>054-056-250400-
NORTHERN VIRGINIA

CITY           SKY/WX    TMP DP  RH WIND       PRES   REMARKS
WASH NATIONAL  CLOUDY    86  73  65 S9        29.96F
DULLES         TSTM      82  72  71 S10       29.97F
FORT BELVOIR   FAIR      81  72  74 NW2       29.96F
QUANTICO       FAIR      86  75  69 S8        29.97F HX  95
FREDERICKSBRG* FAIR      83  77  81 CALM      29.96F
STAFFORD*      FAIR      78  75  90 CALM      30.01F
WARRENTON      FAIR      81  71  70 CALM      29.98F
CULPEPER*      FAIR      81  76  85 CALM      29.99F
MANASSAS*      MOCLDY    84  73  70 CALM      29.98R
LEESBURG*      FAIR      84  75  74 SW3       29.98F
WINCHESTER     FAIR      77  72  83 W5        30.00S
FRONT ROYAL*   FAIR      79  72  78 CALM      30.00S
LURAY*         FAIR      77  72  83 SW3       30.02F
$$

VAZ048-049-060>072-079>083-250400-
CENTRAL AND SOUTH CENTRAL VIRGINIA

CITY           SKY/WX    TMP DP  RH WIND       PRES   REMARKS
RICHMOND       FAIR      82  76  81 S9        29.99S
CHESTERFIELD*  FAIR      82  66  57 S5        30.01S
PETERSBURG*    FAIR      81  79  94 S3        30.01S
HANOVER        FAIR      85  76  74 SE5       30.00S
TAPPAHANNOCK*  FAIR      83  74  75 CALM      30.00S
QUINTON*       FAIR      84  79  85 CALM      29.98F HX  96
CHARLOTTSVILLE FAIR      86  73  65 CALM      29.99S
GORDONSVILLE*  FAIR      79  77  92 CALM      29.99R
ORANGE*          N/A     79  77  94 CALM      30.01R
LOUISA*        FAIR      88  79  74 SE3       29.98F HX 102
BUMPASS*       FAIR      82  77  85 CALM      29.98F
FARMVILLE*     FAIR      83  75  77 SW6       30.00S
CREWE*         FAIR      80  77  89 CALM      30.01F
FORT PICKETT*  FAIR      79  77  94 SW8G17    30.02S
CHASE CITY*    FAIR      78  76  94 CALM      30.04R
CLARKSVILLE*   FAIR      77  77 100 CALM      30.03R
SOUTH HILL*    FAIR      78  75  90 CALM      30.09R
LAWRENCEVILLE* FAIR      79  75  88 CALM      30.02S
EMPORIA*       FAIR      79  75  89 CALM      30.03S
$$

VAZ088>098-250400-
SOUTHEAST VIRGINIA

CITY           SKY/WX    TMP DP  RH WIND       PRES   REMARKS
NORFOLK        FAIR      86  74  67 SW7       30.00S
VIRGINIA BEACH FAIR      90  76  63 SW8       30.00R HX 101
NORFOLK NAVAL  FAIR      86  74  67 SW5       30.02R
WEST POINT*    FAIR      81  77  87 CALM      30.00F
SALUDA*        FAIR      81  80  98 S3        29.99S
NEWPORT NEWS   FAIR      86  77  74 SW8       30.00R HX  97
LANGLEY AFB    FAIR      87  76  70 S9        30.00R HX  97
FORT EUSTIS    FAIR      86  78  77 S2        29.99R HX  97
WILLIAMSBURG*  FAIR      88  77  70 S3        30.00F HX 100
HR EXEC AP*    FAIR      81  73  78 SW5       30.03S
FRANKLIN*      FAIR      81  76  83 S3        30.02R
US460-WAKEFLD  FAIR      83  75  77 CALM      30.01R
$$

VAZ020-022-025-037-045-250400-
WEST CENTRAL AND SOUTHWEST VIRGINIA

CITY           SKY/WX    TMP DP  RH WIND       PRES   REMARKS
STAUNTON*      FAIR      76  71  85 CALM      30.06S
WAYNESBORO*    FAIR      79  71  78 CALM      30.07S
HOT SPRINGS VA NOT AVBL
LYNCHBURG      FAIR      77  73  87 CALM      30.06R
DANVILLE       FAIR      78  73  84 S3        30.04R
SOUTH BOSTON*  FAIR      76  75  95 CALM      30.03S
MARTINSVILLE   FAIR      74  72  93 CALM      30.08S
ROANOKE        FAIR      82  70  66 CALM      30.07R
BLACKSBURG     FAIR      75  72  90 CALM      30.15S
DUBLIN*        FAIR      75  69  80 CALM      30.13F
MARION*        FAIR      75  70  86 S3        30.18F
HILLSVILLE*    FAIR      75  69  81 SE5       30.16S
RICHLANDS*     FAIR      77  71  81 S3        30.16S
WISE*          FAIR      72  61  68 S3        30.17S
ABINGDON*      CLOUDY    77  74  90 CALM      30.14R
$$

MDZ021>025-VAZ099-100-250400-
SOUTHERN MARYLAND AND THE DELMARVA PENINSULA

CITY           SKY/WX    TMP DP  RH WIND       PRES   REMARKS
PATUXENT RIVER PTCLDY    84  79  85 SE9       29.98F HX  96
BAY BRIDGE APT CLOUDY    86  77  74 S8        29.97S HX  97
LEONARDTOWN    CLOUDY    82  77  83 SE5       30.00F
DOVER          MOCLDY    79  74  84 SE7       29.98S
GEORGETOWN     CLOUDY    77  71  82 S6        30.01S
EASTON         PTCLDY    83  76  78 S8        30.02F
CAMBRIDGE      PTCLDY    77  72  83 SE3       29.99F
SALISBURY      CLOUDY    77  75  93 CALM      30.00S
OCEAN CITY     PTCLDY    78  77  96 S3        30.01S
WALLOPS ISLAND FAIR      81  79  94 SE6       30.01S FOG
ACCOMACK*      FAIR      81  77  89 SE3       30.00S
$$

NCZ012>017-030>032-250400-
NORTH CENTRAL AND EASTERN NORTH CAROLINA

CITY           SKY/WX    TMP DP  RH WIND       PRES   REMARKS
ROANOKE RAPIDS FAIR      77  75  94 CALM      30.03R
RALEIGH        MOCLDY    82  74  76 S3        30.04R
ELIZABETH CITY CLEAR     83  78  85 S8        30.03R
AHOSKIE*       CLEAR     77  76  97 S3        30.04R FOG
EDENTON*       CLEAR     85  76  74 SW7       30.04R
CURRITUCK*     CLEAR     83  79  85 CALM      30.04R
KILL DEVIL HLS CLEAR     83  76  79 SW5       30.03S
MANTEO           N/A     83  79  88 SW13      30.04S
CAPE HATTERAS  PTCLDY    82  78  88 SW7       30.06R
TARBORO*       FAIR      83  77  82 S5        30.04S
GOLDSBORO      CLEAR     83  80  91 S6        30.03R HX  95
WASHINGTON     CLEAR     80  75  84 S6        30.04S
GREENVILLE     CLEAR     82  77  83 SW8       30.06R
NEW BERN       PTCLDY    80  76  87 S7        30.06R
WILMINGTON     CLEAR     80  74  81 S5        30.06R
$$

VAZ048-250400-
ELSEWHERE

CITY           SKY/WX    TMP DP  RH WIND       PRES   REMARKS
HARRISBURG PA  CLOUDY    78  76  93 CALM      29.98F
BALTIMORE      CLOUDY    83  72  69 CALM      29.97S
ANNAPOLIS      CLOUDY    86  79  79 S12       29.96F HX  99
ANDREWS AFB    FAIR      82  73  75 S9        29.96F
PHILADELPHIA   CLOUDY    82  63  52 SW6       29.99S
GREENSBORO     PTCLDY    83  71  67 S3        30.05R
ROCKY MOUNT    CLEAR     80  76  87 S3        30.04R
$$

VAZ100-250400-
MARINE

STATION/POSITION TIME  TEMP    WIND        PRES    WAVE   SWELL
                       AIR SEA DIR/SP/G            HT/PER HT/PER
                 (UTC) (F)     (DEG/KT/KT) (MB)    (FT/S) (FT/S)
BRANDYWINE LGT   0212   77     180/ 14/ 16   N/A
CAPE MAY NJ      0200   77 72                N/A
LEWES DE         0200   80 74                N/A
OCEAN-CITY-INLET 0200   76 72                N/A
WACHAPREAGUE VA  0200   81 89                N/A
THOMAS POINT MD  0300   85 83  170/ 15/ 17 1015.9F
GOOSES REEF MD   0200   86 85  180/ 12/ 14 1016.3R   1/ 3
COVE POINT MD    0200   85                   N/A
SOLOMONS ISLAND  0200   86 86                N/A
BISHOPS HEAD MD  0200   84                   N/A
PINEY POINT MD   0200          160/  9/ 11   N/A
POTOMAC MD       0200   85 84  170/ 12/ 14 1014.4R   1/ 3
CAMBRIDGE MD     0200   84 86                N/A
LEWISETTA VA     0200   85 88                N/A
RAPPAHANNOCK LGT 0200          130/  9/ 10 1016.3
STINGRAY PT      0200   86 87   90/  8/ 10 1016.0R   1/ 3
YORK RVR RNG VA  0200   85                   N/A
YORKTOWN VA      0200   86 85                N/A
JAMESTOWN VA     0200   88 89  210/  8/ 10   N/A
DOMINION TERM VA 0200   88                   N/A
KIPTOPEKE VA     0200      83                N/A
CHES BAY BRIDGE  0200   88 80                N/A
CAPE HENRY VA    0200   87                   N/A
WILLOUBY STN VA  0200   87                   N/A
CAPE HENRY BUOY  0212      80                N/A     2/ 8
1ST LANDING BUOY 0200   84 81  180/  4/  6 1015.5R
CAPE CHARLES BUO 0226      74                N/A     2/ 9
OFFSHORE WE BUOY 0221      82                N/A     3/ 4
64NM E OF VA BCH 0250   83 81  210/ 12/ 16 1016.3R   3/ 8   2/ 8
DUCK PIER NC     0200   86 66                N/A
44100 DUCK FRF   0205      80                N/A     2/ 4
44056 DUCK FRF   0211      76                N/A     1/ 8
OREGON INLET NC  0200   85 85                N/A
HATTERAS NC      0200   83 84                N/A
DIAMOND SHLS NC  0250   85 85  220/ 14/ 16 1017.8R   2/ 8   2/ 8
CAPE LOOKOUT NC  0300   83     210/  9/ 10 1017.6R
$$




USA.gov is the U.S. government's official web portal to all federal, state and local government web resources and services.